Miscellaneous Local Product
Issued by NWS Hastings, NE

Home | Current Version | Previous Version | Text Only | Print | Product List | Glossary Off
Versions: 1 2 3 4 5 6 7 8 9 10 11 12 13 14 15 16 17 18 19 20 21 22 23 24 25 26 27 28 29 30 31 32 33 34 35 36 37 38 39 40 41 42 43 44 45 46 47 48 49 50

000
AXUS43 KGID 230902
MISGRI

GID CWA HOURLY WEATHER ROUNDUP
NATIONAL WEATHER SERVICE HASTINGS NE
400 AM CDT SAT MAY 23 2015

NOTE: "FAIR" INDICATES FEW OR NO CLOUDS BELOW 12,000 FEET WITH NO
SIGNIFICANT WEATHER AND/OR OBSTRUCTIONS TO VISIBILITY.

...SOUTH CENTRAL NEBRASKA...

CITY           SKY/WX    TMP DP  RH WIND       PRES   REMARKS
GRAND ISLAND   CLOUDY    53  49  86 SE8       30.15S
HASTINGS       LGT RAIN  54  50  86 S9        30.14S
KEARNEY        CLOUDY    52  50  93 SE12      30.13F
ORD            CLOUDY    53  50  89 SE8       30.12S
YORK           CLOUDY    55  48  76 S9        30.17S
AURORA         CLOUDY    53  49  83 SE8       30.15F
LEXINGTON      CLOUDY    54  53  97 SE9       30.10F FOG
HOLDREGE       CLOUDY    53  52  96 SE12G18   30.11F FOG
HEBRON         CLOUDY    55  48  76 S8        30.17R

...NEBRASKA PANHANDLE...

CITY           SKY/WX    TMP DP  RH WIND       PRES   REMARKS
CHADRON        CLOUDY    48  44  86 S5        30.07R
ALLIANCE       CLOUDY    46  46 100 SE7       30.05F FOG
SCOTTSBLUFF    CLOUDY    46  45  96 E6        30.05F
SIDNEY         FOG       47  47 100 SE7       30.05S VSB 1/4

...WESTERN AND NORTH CENTRAL NEBRASKA...

CITY           SKY/WX    TMP DP  RH WIND       PRES   REMARKS
VALENTINE      LGT RAIN  49  47  93 E7        30.11S FOG
AINSWORTH      RAIN      50  50 100 E7        30.11S
ONEILL         CLOUDY    52  50  93 SE7       30.14F
BROKEN BOW     CLOUDY    53  52  96 S12       30.11R FOG
IMPERIAL       LGT RAIN  52  51  97 SE17      30.04F
NORTH PLATTE   LGT RAIN  53  51  93 SE9       30.07F
MCCOOK         CLOUDY    54  53  97 SE7       30.09R FOG

...EASTERN NEBRASKA...

CITY           SKY/WX    TMP DP  RH WIND       PRES   REMARKS
NORFOLK        CLOUDY    54  49  83 SE5       30.17S
SO SIOUX CITY  CLOUDY    56  50  80 SE7       30.19F
TEKAMAH        CLOUDY    57  51  80 SE8       30.19S
COLUMBUS       CLOUDY    55  43  62 S6        30.21S
ALBION         CLOUDY    53  47  82 SE6       30.16S
OMAHA EPPLEY   CLOUDY    59  50  72 SE8       30.19F
OFFUTT AFB     MOCLDY    56  51  81 SE2       30.19S
MILLARD        CLOUDY    59  51  75 SE5       30.19S
LINCOLN        CLOUDY    56  50  80 S6        30.19F
NEBRASKA CITY  CLOUDY    56  49  76 CALM      30.19S
BEATRICE       CLOUDY    56  49  75 SE7       30.17S
FALLS CITY     CLOUDY    57  51  80 SE3       30.18F

...NORTHERN KANSAS...

CITY           SKY/WX    TMP DP  RH WIND       PRES   REMARKS
GOODLAND       CLOUDY    53  53 100 SE13G22   30.03R FOG
HILL CITY      MOCLDY    54  52  93 SE15G24   30.06F
NORTON         CLOUDY    54  50  87 SE12G18   30.06F
PHILLIPSBURG   CLOUDY    57  57 100 E12       30.10F
SMITH CENTER   CLOUDY    52  52 100 SE9       30.13S
HAYS           CLOUDY    54  46  76 SE12      30.10F
RUSSELL        CLOUDY    54  53  97 SE13      30.10F
CONCORDIA      CLOUDY    53  52  96 SE7       30.15F
SALINA         CLOUDY    55  53  93 SE6       30.16S
TOPEKA         LGT RAIN  59  53  80 SE5       30.19R



USA.gov is the U.S. government's official web portal to all federal, state and local government web resources and services.